Other Surface Observations
Issued by NWS Charleston, SC

Home | Current Version | Previous Version | Text Only | Print | Product List | Glossary On
Versions: 1 2 3 4 5 6 7 8 9 10 11 12 13 14 15 16 17 18 19 20 21 22 23 24 25 26 27 28 29 30 31 32 33 34 35 36 37 38 39 40 41 42 43 44 45 46 47 48 49 50
000
SXUS52 KCHS 050026
OSOCHS

MARINE OBSERVATIONS
NATIONAL WEATHER SERVICE CHARLESTON SC
800 PM EDT MON MAY 04 2015

...DOWNTOWN CHARLESTON AND HARBOR...

CITY           SKY/WX    TMP DP  RH WIND       PRES   REMARKS
WATERFRONT PRK   N/A     72 N/A N/A E10         N/A
FORT JOHNSON   NOT AVBL

...LAKE MOULTRIE...

CITY           SKY/WX    TMP DP  RH WIND       PRES   REMARKS
PINOPOLIS      NOT AVBL

...LAKE AND SUPPLEMENTAL COASTAL OBSERVATIONS...

STATION/POSITION TIME  TEMP    WIND        PRES    WAVE   SWELL
                       AIR SEA DIR/SP/G            HT/PER HT/PER/DIR
                 (UTC) (F)     (DEG/KT/KT) (MB)    (FT/S) (FT/S/D)
FORT PULASKI     2300   72 71   70/ 11/ 12 1025.6F
SAPELO ISLAND    0000   71      60/  5     1025.0R
UPR LAKE MARION  NOT AVBL
WINYAH BAY       2300   74     120/  9     1025.0
LAKE MURRAY      0000   77     160/ 10/ 12 1023.7R
ACE BASIN NERRS  NOT AVBL


...C-MAN AND BUOY OBSERVATIONS...

STATION/POSITION TIME  TEMP    WIND        PRES    WAVE   SWELL
                       AIR SEA DIR/SP/G            HT/PER HT/PER/DIR
                 (UTC) (F)     (DEG/KT/KT) (MB)    (FT/S) (FT/S/D)
BUOY 41004       2350   73 74  100/ 16/ 17 1025.1R   3/11   2/11
BUOY 41008       2350   71 70   80/  8/ 10 1024.8R   3/ 5   3/110/ 5
FOLLY BEACH CMAN 0000   71      80/  7/  8 1025.8S
CAPERS NS BUOY   2308   72     120/ 12/ 14 1025.6F
FRIPP NS BUOY    2300   72      90/ 10/ 10 1024.4F
5E ST. MARYS GA  2321      72                N/A     4/ 5   2/ 90/12


STATION/POSITION TIME  TEMP    WIND        PRES    WAVE   SWELL
                       AIR SEA DIR/SP/G            HT/PER HT/PER/DIR
                 (UTC) (F)     (DEG/KT/KT) (MB)    (FT/S) (FT/S/D)
FRYING PAN BUOY  2350   74 73  130/ 10/ 12 1027.1F   3/ 9   2/ 70/ 9
BUOY 41025       2350   74 78  210/ 10/ 14 1026.8R   4/12   3/ 70/12
CAPE LOOKOUT NC  0000   69     170/  8/  8 1026.5R
BUOY 41002       2350   69 70   90/ 14/ 17 1026.8R   5/12   3/ 60/12
BUOY 41010       2320   74 78   80/ 17/ 23 1022.6F
ST AUGUSTINE FL  0000   72 72   90/  7/  8 1024.4S

$$



USA.gov is the U.S. government's official web portal to all federal, state and local government web resources and services.